Вернуться в каталог

CAPELLA-15

ACADIA

АктивенНаукаSSO
NORAD 60544·PAYLOAD·🇺🇸 United States

Запущен Aug 16, 2024 с Vandenberg Space Force Base

Loading…

Ближайшие Пролёты (ближайшие 24 часа)

TLE

СвежийSource: Space-Track

Эпоха: Sep 14, 2026, 15:06 UTC

1 60544U 24149CE  26257.62983777  .00000545  00000-0  58705-4 0  9993
2 60544  97.6695 328.2633 0005401 121.8194 238.3552 14.92329855113197

Отслеживайте CAPELLA-15 в реальном времени с AllMySat

Download on the App Store